Main page
METAR-TAF:

METAR-TAF

Airports :

J6-a, Netherlands

Oil platform

latitude: 53-49-27N, longitude: 2-56-43E, elevation: 34 m

Current weather observation

The report was made 23 minutes ago, at 02:25 UTC
Wind 6 kt from the Northwest, varying between West/Southwest and Northeast
Temperature 15°C
Humidity 88%
Pressure 1008 hPa
Visibility 10 km or more

METAR: EHJA 240225Z AUTO 32006KT 240V040 9999 FEW007/// SCT011/// 15/13 Q1008

Time: 04:48 (02:48 UTC)


TAF: missing

Weather observations and forecasts of more than 4000 airports (METAR and TAF reports).

The available stations are represented by yellow and red dots on the map.

Hover mouse over dot to see the name of the station.

Then click to see weather observations and forecasts.

To change the map : click on the green buttons with a black cross to zoom in, on the green button with a dash to zoom out, or on the green arrows for adjacent maps.


METAR-TAF: